Tracking 29511 objects as of 17-Sep-2024
HD Live streaming from Space Station
objects crossing your sky now

STARLINK-5471

Track STARLINK-5471 now!
10-day predictions
STARLINK-5471 is classified as:


NORAD ID: 54766
Int'l Code: 2022-175J
Perigee: 545.9 km
Apogee: 547.8 km
Inclination: 53.2 °
Period: 95.4 minutes
Semi major axis: 6917 km
RCS: Unknown
Launch date: December 17, 2022
Source: United States (US)
Launch site: AIR FORCE EASTERN TEST RANGE (AFETR)
Your satellite tracking list
Your tracking list is empty




NASA's NSSDC Master Catalog

Two Line Element Set (TLE):
1 54766U 22175J   24260.39310618  .00015102  00000-0  96465-3 0  9992
2 54766  53.2149 305.1145 0001377  97.5709 262.5439 15.08850904 98501
Source of the keplerian elements: AFSPC